Weather History for KRYV - March, 2013

Change the Weather History Date:

Tuesday, March 19, 2013

  Actual Average Record
Temperature  
Mean Temperature 20 °F -  
Max Temperature 29 °F 43 °F - (-1)
Min Temperature 12 °F 26 °F - (-1)
Degree Days  
Heating Degree Days 44    
Moisture  
Dew Point 8 °F    
Average Humidity 62    
Maximum Humidity 79    
Minimum Humidity 43    
Precipitation  
Precipitation 0.00 in - - ()
Sea Level Pressure  
Sea Level Pressure 29.86 in    
Wind  
Wind Speed 15 mph (West)    
Max Wind Speed 23 mph    
Max Gust Speed 33 mph    
Visibility 10 miles    
Events Snow    
Averages and records for this station are not official NWS values.
T = Trace of Precipitation, MM = Missing Value Source: NWS Daily Summary

Daily Weather History Graph

Daily Weather History Graph

Search for Another Location

Airport or City:

Trip Planner

Search our weather history database for the weather conditions in past years. The results will help you decide how hot, cold, wet, or windy it might be!

Date:

Astronomy

Mar. 19, 2013 Rise Set
Actual Time 6:59 AM CDT 7:06 PM CDT
Civil Twilight 6:31 AM CDT 7:34 PM CDT
Nautical Twilight 5:57 AM CDT 8:08 PM CDT
Astronomical Twilight 5:24 AM CDT 8:42 PM CDT
Moon 11:40 AM CDT (3/19) 2:01 AM CDT (3/19)
Length of Visible Light 13h 03m
Length of Day
12h 06m
Waxing Crescent, 50% of the Moon is Illuminated
Mar 19
Waxing Crescent
Mar 19
First Quarter
Mar 27
Full
Apr 2
Last Quarter
Apr 10
New

Hourly Weather History & Observations

Time (CDT) Temp. Windchill Dew Point Humidity Pressure Visibility Wind Dir Wind Speed Gust Speed Precip Events Conditions
12:35 AM 17.2 °F 1.2 °F 10.2 °F 74% 29.70 in 10.0 mi West 18.4 mph 25.3 mph N/A Snow Light Snow
12:55 AM 16.2 °F 3.2 °F 8.6 °F 72% 29.70 in 10.0 mi West 11.5 mph 25.3 mph N/A   Mostly Cloudy
1:15 AM 15.6 °F 0.6 °F 8.2 °F 73% 29.70 in 10.0 mi West 15.0 mph 24.2 mph N/A   Scattered Clouds
1:35 AM 15.3 °F -0.4 °F 7.7 °F 72% 29.70 in 10.0 mi West 16.1 mph 21.9 mph N/A   Scattered Clouds
1:55 AM 14.7 °F 0.1 °F 7.3 °F 73% 29.70 in 10.0 mi West 13.8 mph 20.7 mph N/A   Scattered Clouds
2:15 AM 14.7 °F -1.6 °F 6.8 °F 71% 29.71 in 10.0 mi West 17.3 mph 21.9 mph N/A   Mostly Cloudy
2:55 AM 14.7 °F -0.5 °F 7.7 °F 74% 29.71 in 10.0 mi West 15.0 mph 21.9 mph N/A   Overcast
3:15 AM 14.7 °F -0.5 °F 9.1 °F 79% 29.71 in 7.0 mi West 15.0 mph 18.4 mph N/A Snow Light Snow
3:35 AM 14.7 °F 0.1 °F 8.6 °F 77% 29.71 in 10.0 mi West 13.8 mph - N/A   Overcast
3:55 AM 14.5 °F -2.3 °F 7.5 °F 74% 29.71 in 10.0 mi West 18.4 mph 26.5 mph N/A   Overcast
4:15 AM 14.0 °F -2.5 °F 7.3 °F 75% 29.71 in 10.0 mi West 17.3 mph 26.5 mph N/A   Overcast
5:15 AM 14.0 °F 1.2 °F 7.3 °F 75% 29.74 in 10.0 mi West 10.4 mph 20.7 mph N/A   Overcast
5:35 AM 14.0 °F 1.2 °F 7.5 °F 75% 29.74 in 10.0 mi West 10.4 mph 24.2 mph N/A   Overcast
5:55 AM 14.0 °F -1.4 °F 7.5 °F 75% 29.75 in 10.0 mi WSW 15.0 mph 19.6 mph N/A   Overcast
6:15 AM 13.6 °F -0.7 °F 7.3 °F 76% 29.75 in 10.0 mi West 12.7 mph 23.0 mph N/A   Overcast
6:35 AM 13.1 °F -0.7 °F 6.8 °F 76% 29.76 in 10.0 mi WSW 11.5 mph 25.3 mph N/A   Overcast
6:55 AM 12.9 °F -0.9 °F 6.8 °F 77% 29.76 in 10.0 mi West 11.5 mph 21.9 mph N/A   Overcast
7:55 AM 12.7 °F -1.1 °F 6.3 °F 75% 29.78 in 10.0 mi West 11.5 mph 23.0 mph N/A   Overcast
8:15 AM 12.7 °F -2.5 °F 6.3 °F 75% 29.79 in 10.0 mi West 13.8 mph 21.9 mph N/A   Overcast
8:35 AM 13.1 °F -2.6 °F 6.1 °F 74% 29.79 in 10.0 mi West 15.0 mph 23.0 mph N/A   Overcast
8:55 AM 13.1 °F -4.6 °F 5.9 °F 73% 29.80 in 10.0 mi West 19.6 mph 25.3 mph N/A   Overcast
9:15 AM 13.6 °F -1.9 °F 6.3 °F 72% 29.81 in 10.0 mi West 15.0 mph 27.6 mph N/A   Overcast
9:35 AM 14.2 °F -2.3 °F 6.3 °F 71% 29.83 in 7.0 mi West 17.3 mph 28.8 mph N/A   Overcast
9:55 AM 14.7 °F -2.0 °F 6.4 °F 70% 29.83 in 10.0 mi West 18.4 mph 26.5 mph N/A   Mostly Cloudy
10:15 AM 15.8 °F 0.3 °F 7.2 °F 69% 29.84 in 10.0 mi West 16.1 mph 24.2 mph N/A   Scattered Clouds
10:35 AM 16.7 °F 2.0 °F 7.7 °F 68% 29.84 in 10.0 mi West 15.0 mph 25.3 mph N/A   Scattered Clouds
10:55 AM 17.4 °F -0.2 °F 7.5 °F 65% 29.84 in 10.0 mi West 23.0 mph 28.8 mph N/A   Clear
11:35 AM 18.5 °F 2.0 °F 7.7 °F 63% 29.86 in 7.0 mi West 20.7 mph 33.4 mph N/A   Clear
12:15 PM 20.7 °F 4.5 °F 9.0 °F 61% 29.88 in 10.0 mi West 21.9 mph 31.1 mph N/A   Clear
12:35 PM 21.6 °F 6.9 °F 9.1 °F 59% 29.88 in 10.0 mi West 18.4 mph 29.9 mph N/A   Clear
12:55 PM 22.6 °F 8.3 °F 9.5 °F 57% 29.89 in 10.0 mi West 18.4 mph 27.6 mph N/A   Clear
1:15 PM 23.9 °F 8.8 °F 10.0 °F 56% 29.89 in 10.0 mi West 21.9 mph 29.9 mph N/A   Clear
1:35 PM 24.8 °F 10.3 °F 10.2 °F 54% 29.89 in 10.0 mi West 20.7 mph 26.5 mph N/A   Clear
2:15 PM 26.2 °F 11.9 °F 10.2 °F 51% 29.90 in 10.0 mi West 21.9 mph 28.8 mph N/A   Clear
2:35 PM 26.4 °F 12.8 °F 9.5 °F 49% 29.90 in 10.0 mi West 19.6 mph 27.6 mph N/A   Clear
2:55 PM 26.8 °F 14.9 °F 9.1 °F 47% 29.90 in 10.0 mi West 15.0 mph 26.5 mph N/A   Clear
3:35 PM 27.9 °F 15.9 °F 9.5 °F 46% 29.91 in 10.0 mi West 16.1 mph 27.6 mph N/A   Clear
3:55 PM 28.0 °F 16.1 °F 9.5 °F 46% 29.92 in 10.0 mi West 16.1 mph 27.6 mph N/A   Clear
4:15 PM 28.4 °F 18.0 °F 9.5 °F 45% 29.92 in 10.0 mi West 12.7 mph 23.0 mph N/A   Clear
4:35 PM 28.9 °F 18.2 °F 9.7 °F 45% 29.93 in 10.0 mi West 13.8 mph 20.7 mph N/A   Clear
4:55 PM 29.1 °F 18.9 °F 9.1 °F 43% 29.94 in 10.0 mi West 12.7 mph 21.9 mph N/A   Clear
5:15 PM 28.9 °F 16.5 °F 9.3 °F 44% 29.94 in 10.0 mi West 18.4 mph 26.5 mph N/A   Clear
5:35 PM 28.4 °F 16.2 °F 9.3 °F 45% 29.95 in 10.0 mi West 17.3 mph - N/A   Clear
5:55 PM 28.4 °F 17.0 °F 9.3 °F 45% 29.95 in 10.0 mi West 15.0 mph 21.9 mph N/A   Clear
6:15 PM 28.2 °F 17.2 °F 8.8 °F 44% 29.96 in 10.0 mi West 13.8 mph 21.9 mph N/A   Clear
6:55 PM 26.8 °F 15.9 °F 8.4 °F 46% 29.97 in 10.0 mi West 12.7 mph 18.4 mph N/A   Clear
7:15 PM 26.4 °F 16.0 °F 7.7 °F 45% 29.97 in 10.0 mi WSW 11.5 mph 20.7 mph N/A   Clear
7:35 PM 25.7 °F 13.5 °F 7.7 °F 47% 29.98 in 10.0 mi West 15.0 mph 21.9 mph N/A   Clear
7:55 PM 24.4 °F 14.9 °F 9.7 °F 53% 29.98 in 10.0 mi SW 9.2 mph - N/A   Clear
8:35 PM 22.8 °F 13.6 °F 10.0 °F 58% 29.99 in 10.0 mi WSW 8.1 mph - N/A   Clear
8:55 PM 23.5 °F 11.3 °F 8.6 °F 53% 30.00 in 10.0 mi WSW 13.8 mph 20.7 mph N/A   Scattered Clouds
9:35 PM 22.6 °F 10.7 °F 9.0 °F 56% 30.00 in 10.0 mi West 12.7 mph 17.3 mph N/A   Scattered Clouds
9:55 PM 21.7 °F 10.2 °F 9.0 °F 58% 30.00 in 10.0 mi West 11.5 mph - N/A   Clear
10:15 PM 21.0 °F 10.6 °F 8.6 °F 59% 30.01 in 10.0 mi West 9.2 mph - N/A   Clear
10:35 PM 20.8 °F 10.4 °F 8.4 °F 59% 30.01 in 10.0 mi West 9.2 mph - N/A   Clear
10:55 PM 19.9 °F 10.1 °F 8.6 °F 61% 30.01 in 10.0 mi West 8.1 mph - N/A   Clear
11:15 PM 19.6 °F 8.1 °F 8.1 °F 61% 30.02 in 10.0 mi West 10.4 mph - N/A   Clear
11:55 PM 19.0 °F 7.5 °F 7.2 °F 60% 30.02 in 10.0 mi West 10.4 mph 17.3 mph N/A   Clear